Theta_e
306 305 306 306 307 308 308 308 306 305 306 306 306 305 304 303 303 303 302 302 301 301 301 301 301 301 302 303 309 313 315 317 317 320 317 318 318 321 326 324 324 322 320 320
303 307 306 307 306 307 307 307 305 304 306 307 307 306 303 303 303 303 302 302 301 301 300 300 299 299 301 302 303 304 306 312 316 320 319 317 317 318 318 323 324 325 324 323
305 308 307 307 306 307 306 307 306 306 305 306 306 304 305 304 303 303 302 302 301 300 300 299 298 298 300 301 302 302 303 304 308 316 317 319 319 318 318 318 323 324 326 325
305 306 306 306 307 306 310 306 307 306 305 307 305 304 305 304 303 302 302 301 301 300 300 299 298 297 299 300 301 302 302 302 303 305 314 317 318 318 319 322 320 323 324 325
306 305 305 305 307 306 307 306 306 306 305 305 306 301 303 304 303 302 302 301 300 300 299 299 298 297 298 300 301 301 302 302 302 302 303 308 316 318 319 319 321 320 322 321
304 305 305 305 305 306 306 307 304 304 303 299 306 303 302 305 305 302 301 301 300 300 299 298 297 296 296 299 301 301 302 302 302 302 303 303 306 315 317 318 320 320 321 322
300 304 303 304 304 303 303 300 294 298 298 303 303 303 303 305 303 302 302 302 300 300 299 298 297 296 296 298 300 301 301 302 302 302 302 302 302 305 314 316 318 321 322 320
294 296 302 303 304 305 305 302 297 300 301 301 302 306 305 304 304 304 303 302 300 300 299 297 296 295 295 297 299 301 302 302 302 301 301 301 302 302 304 313 316 318 321 321
292 296 302 302 303 302 303 301 303 296 294 305 303 304 304 304 303 303 303 301 300 300 298 296 296 295 295 297 298 300 302 302 303 302 302 301 301 303 303 304 312 315 319 321
295 294 297 301 303 303 304 304 299 295 295 298 301 302 306 306 304 302 301 300 300 300 298 296 295 295 294 295 297 298 301 302 303 303 303 302 302 301 303 303 304 310 315 318
294 292 295 300 297 302 303 299 304 302 301 298 295 301 300 303 302 302 302 302 302 301 299 296 295 295 294 296 296 298 301 302 303 303 303 303 303 303 302 302 303 304 308 314
298 295 295 296 299 300 302 304 303 296 295 297 299 301 300 302 302 303 303 303 302 301 300 296 295 294 294 296 295 297 300 302 303 304 304 304 304 304 303 302 303 304 305 311
300 293 291 294 295 298 300 302 303 300 296 295 297 297 299 301 302 303 303 303 302 302 301 297 295 295 294 295 295 295 298 301 302 303 303 304 304 305 304 304 303 305 308 310
300 290 293 297 298 298 298 297 302 297 290 295 297 296 298 294 294 301 301 301 301 302 302 297 295 295 294 294 294 295 297 297 300 302 303 304 305 305 305 305 305 306 308 310
299 294 288 292 296 298 298 295 295 295 298 294 293 295 299 296 294 300 302 301 302 302 299 296 295 295 294 294 294 294 295 296 300 300 302 304 305 305 306 306 307 307 308 310
299 295 291 291 289 292 293 294 294 289 290 295 298 299 300 301 301 301 302 301 300 299 297 297 295 295 294 294 294 294 294 295 296 300 303 303 304 305 305 306 308 308 309 311
298 295 288 292 288 288 295 291 295 294 295 298 296 298 299 300 302 303 303 302 300 299 298 297 296 295 294 294 294 294 294 294 295 295 301 303 303 304 305 305 306 307 308 309
297 295 290 290 288 295 299 293 295 295 294 297 298 297 299 301 304 304 304 304 304 301 299 298 296 295 295 294 294 294 294 294 294 294 300 301 303 304 304 304 304 306 306 307
297 296 288 292 284 297 299 298 296 297 298 296 297 298 299 300 301 303 304 304 304 304 301 299 297 295 295 295 295 295 294 294 294 294 299 298 298 300 299 300 302 303 304 303
295 294 292 282 290 299 304 298 300 299 298 299 298 299 299 301 302 298 304 304 302 303 302 300 298 296 295 295 294 295 294 294 294 294 296 296 295 294 294 294 295 300 302 299
288 287 290 284 287 295 296 299 300 298 301 305 302 302 301 301 304 305 305 303 301 301 301 300 299 297 295 295 294 295 295 294 294 293 293 293 293 293 293 293 293 294 295 297
294 292 290 284 288 299 298 300 300 300 304 305 305 304 304 305 305 305 305 305 303 300 300 299 299 298 296 295 295 294 295 295 294 293 293 293 293 292 292 292 292 292 292 293
299 296 295 296 298 299 300 302 303 305 304 304 304 304 304 304 304 304 305 305 305 303 301 299 298 297 296 295 295 295 294 295 294 294 293 293 292 292 292 292 292 292 292 292
293 296 295 296 300 298 301 302 302 303 303 303 303 303 303 303 303 303 303 303 304 304 304 302 299 297 297 296 295 295 295 294 295 294 294 293 293 292 292 292 292 292 292 292
295 295 294 294 298 299 301 303 304 304 303 303 303 303 303 301 302 302 302 302 302 302 302 303 303 301 299 297 296 295 295 295 294 294 294 293 293 293 293 293 292 292 292 292
294 294 299 301 304 306 307 308 308 306 306 306 306 306 307 304 303 302 302 302 301 301 302 301 301 303 303 299 297 296 296 295 295 294 294 294 293 293 293 292 292 292 292 292
Wind_Speed
9 9 5 5 3 3 2 1 3 4 2 5 1 3 3 2 6 6 7 8 10 10 10 14 15 14 12 9 4 6 2 10 4 7 6 5 7 5 19 28 27 25 23 22
6 5 5 4 7 5 5 3 5 7 5 4 2 2 3 2 1 2 3 6 8 9 11 14 16 16 16 12 7 6 7 7 7 9 9 7 5 6 3 7 28 24 23 22
5 1 8 3 5 4 2 3 2 3 8 2 2 2 3 2 3 2 3 5 7 8 11 14 17 18 19 17 10 9 9 9 7 10 10 16 12 7 7 5 8 12 26 23
6 6 4 4 2 2 2 3 1 4 5 2 3 3 3 4 4 1 3 4 6 7 9 12 16 19 20 19 16 10 9 10 9 7 12 13 20 20 22 21 20 18 22 23
1 5 5 3 3 2 3 3 2 1 3 2 4 3 5 4 5 5 4 4 5 6 9 12 15 17 18 18 17 14 11 9 8 9 12 13 17 18 27 25 22 22 19 18
2 2 1 2 5 4 6 1 5 3 2 3 4 3 4 4 3 2 4 5 5 6 9 10 13 15 16 16 14 14 12 11 8 8 10 15 17 20 19 22 24 21 20 17
5 1 4 4 4 4 6 5 3 5 5 4 4 2 7 3 4 5 5 4 5 7 11 12 14 17 17 16 15 15 14 11 9 9 7 12 17 18 20 20 20 22 18 22
2 6 4 7 3 3 5 2 4 4 2 5 4 3 3 3 5 5 5 4 4 8 12 13 14 16 17 16 15 14 14 11 10 10 10 10 12 16 18 20 22 18 20 17
4 5 3 2 2 3 5 5 2 5 2 2 4 6 2 2 4 6 7 6 6 6 10 12 13 16 17 15 15 13 12 12 11 9 8 9 10 12 17 20 21 20 20 21
2 3 1 4 3 2 2 2 4 3 3 4 5 5 4 4 3 3 5 10 8 7 8 10 12 14 16 15 13 13 11 9 9 9 8 7 7 8 11 15 19 20 20 19
5 4 5 3 1 2 3 2 2 3 2 3 2 6 5 5 6 6 8 9 9 7 7 8 10 12 14 13 11 10 10 10 8 8 8 7 5 5 6 8 13 15 16 17
3 5 3 7 4 3 1 2 2 4 5 1 3 7 2 4 7 8 9 8 8 8 7 7 9 10 12 11 11 11 11 11 9 8 8 7 6 4 3 1 4 10 12 12
7 2 4 8 5 4 2 3 2 4 3 4 4 6 2 7 9 14 13 12 11 11 10 7 7 8 9 8 9 11 11 9 8 8 6 6 5 4 4 4 4 6 7 8
5 4 6 5 5 3 3 3 5 5 3 3 6 8 11 7 8 21 21 19 16 15 12 7 5 6 6 7 7 8 9 12 9 7 8 6 6 6 5 5 7 9 10 10
1 3 3 5 6 3 5 5 5 8 5 6 4 7 14 9 8 21 12 7 6 6 8 6 5 4 5 6 6 6 8 9 10 9 7 6 6 6 7 7 8 10 11 11
2 2 4 5 3 2 5 8 9 3 4 10 11 18 14 18 13 14 10 7 6 5 6 6 5 3 2 4 5 6 7 7 6 6 3 4 5 7 7 8 8 8 9 9
4 4 3 4 5 6 8 8 13 6 6 11 6 11 4 3 11 14 9 8 8 8 6 6 4 3 2 3 5 5 5 6 5 3 3 4 7 9 8 7 8 7 9 12
5 3 2 3 5 3 5 4 8 7 6 17 9 7 9 10 12 17 19 18 12 9 7 6 4 3 2 4 5 4 4 4 4 4 5 6 8 7 7 6 7 7 7 7
1 4 2 3 3 8 2 6 8 8 7 16 18 17 16 14 12 26 16 17 12 10 7 6 5 4 2 3 4 4 4 4 3 4 7 7 6 6 7 7 8 7 7 7
4 5 3 3 4 6 4 3 9 4 5 11 22 15 11 8 1 4 4 3 5 9 9 7 6 6 4 3 3 3 3 3 2 3 3 4 4 5 8 7 8 9 9 8
3 2 5 2 2 10 6 8 11 5 5 11 16 13 13 7 12 2 3 3 3 6 7 8 8 6 6 5 4 3 2 1 1 0 1 1 2 5 6 6 6 6 7 7
8 8 5 3 2 9 15 7 7 3 5 7 8 10 14 14 10 9 9 7 7 6 9 10 10 9 8 8 7 6 4 3 3 3 2 2 1 1 3 4 5 6 8 8
4 8 7 10 7 4 31 9 20 5 6 7 7 6 8 11 11 11 13 13 11 11 10 12 13 12 13 12 11 9 7 6 6 6 6 5 4 4 3 3 3 3 4 6
5 9 3 3 5 20 21 31 20 14 20 13 11 10 12 14 12 11 12 14 16 15 17 15 16 18 16 15 15 12 12 11 10 9 8 8 7 7 7 6 5 6 7 7
5 16 6 6 12 16 20 26 33 31 30 26 22 21 21 21 24 22 19 19 18 17 17 19 21 21 19 19 17 17 17 16 14 14 13 11 11 10 10 10 10 11 10 9
12 7 6 7 14 10 6 1 10 17 23 16 15 18 18 19 17 17 21 20 22 26 23 22 22 23 23 23 22 21 22 20 19 19 18 16 15 14 13 13 13 14 13 13
Wind_Direction
28 63 41 353 346 216 188 109 323 293 263 5 27 198 226 67 73 62 57 42 41 42 22 10 6 6 1 3 304 296 128 180 215 194 82 217 309 57 198 206 202 210 208 211
38 59 331 332 5 57 57 45 339 288 290 344 287 295 200 222 89 64 63 52 44 40 21 17 11 12 8 356 347 304 295 265 191 176 182 128 94 262 351 169 211 208 205 206
100 10 335 95 27 46 67 104 305 249 317 288 327 4 206 241 150 95 34 34 40 29 18 11 9 8 6 2 351 327 301 285 252 223 210 201 181 169 169 254 212 230 207 215
72 342 28 27 84 339 159 190 318 318 2 323 34 279 252 207 213 243 309 353 13 18 11 3 4 4 2 359 355 340 304 286 279 246 234 216 214 207 214 230 223 216 212 221
223 11 359 4 309 300 230 280 243 133 317 347 341 71 269 132 243 237 260 301 342 360 3 1 358 355 356 356 355 347 330 311 286 266 246 229 227 218 218 225 233 228 220 215
77 75 36 293 300 251 296 91 46 55 39 30 278 108 277 204 225 200 227 280 309 340 355 356 354 353 352 355 354 350 342 329 321 283 252 241 232 227 229 222 230 220 237 230
338 27 332 14 322 331 28 50 358 2 9 226 338 13 246 222 199 206 232 273 296 330 342 349 349 351 353 354 356 355 349 339 332 317 281 245 239 232 228 231 226 228 223 237
94 336 14 350 62 303 339 91 139 201 321 293 314 242 273 214 192 217 238 251 261 319 335 338 340 343 347 352 352 0 355 350 344 332 309 275 241 234 230 227 230 229 226 225
101 300 326 6 351 92 312 37 144 98 68 303 273 295 278 223 264 248 239 216 243 304 324 330 333 337 342 347 348 356 356 354 348 348 340 322 286 252 235 231 232 230 229 224
176 5 270 287 3 346 51 184 41 11 45 317 302 292 252 248 187 166 179 217 241 279 310 323 330 336 341 343 347 350 354 358 356 354 351 342 330 300 260 237 229 230 227 226
122 100 285 359 284 175 0 360 55 112 121 153 288 274 218 225 197 219 227 231 247 267 304 322 327 333 341 340 344 353 357 3 2 357 357 351 341 314 300 265 233 226 224 224
162 133 264 223 260 308 242 224 143 123 270 198 168 274 295 251 223 236 255 249 256 267 293 308 318 329 339 344 348 353 352 358 9 7 7 7 4 1 341 303 220 209 210 213
169 85 351 340 354 356 232 211 153 106 75 210 144 263 330 290 269 259 275 272 264 262 281 285 300 320 332 347 352 353 358 357 3 5 17 38 37 46 84 125 158 166 168 172
146 113 165 211 211 134 198 235 175 128 120 193 231 291 292 279 270 288 291 286 270 263 266 260 278 307 328 345 358 7 6 7 1 7 6 36 48 55 92 101 129 134 142 153
98 136 136 260 258 263 226 187 193 186 195 178 250 227 273 268 259 298 300 300 270 245 241 243 251 294 322 341 351 11 16 13 17 13 354 39 60 66 81 94 121 134 148 157
222 152 103 295 313 322 256 226 208 203 242 271 268 285 270 285 265 259 275 287 270 244 244 252 243 249 291 340 353 7 17 21 33 40 14 51 76 82 87 97 130 131 132 139
163 129 77 262 324 327 301 216 182 192 211 193 189 227 256 280 265 272 271 265 272 264 258 262 259 256 321 359 6 14 12 14 14 35 110 104 105 94 80 89 103 113 140 144
135 94 95 242 13 320 245 149 178 199 213 213 260 238 219 245 271 280 278 273 265 265 261 272 266 268 323 355 6 22 31 24 19 45 111 121 107 118 115 107 106 111 134 145
147 128 89 123 182 292 238 191 166 182 274 204 220 247 243 264 289 290 272 254 254 256 252 255 262 255 286 338 346 18 49 33 23 55 115 112 118 122 123 141 157 147 142 154
70 67 110 99 145 231 252 203 165 165 295 191 199 231 222 176 128 260 289 274 236 224 237 238 251 255 254 287 316 346 23 43 47 77 119 127 111 104 96 101 106 119 126 130
105 29 173 162 216 282 244 157 142 90 231 170 197 212 181 189 215 239 259 279 254 243 236 238 244 242 244 250 271 276 305 8 7 26 104 111 117 99 100 100 106 123 132 146
164 150 189 92 116 268 161 127 177 219 144 160 182 207 214 236 241 253 253 257 262 253 255 248 248 248 246 243 252 252 251 268 289 288 261 252 239 122 120 130 141 138 137 146
216 185 179 192 210 228 183 203 211 170 193 187 197 214 232 246 254 255 256 259 262 263 258 257 255 250 248 248 243 247 246 249 260 277 277 254 236 230 226 193 167 164 160 158
239 205 196 91 237 231 231 228 234 240 240 250 253 253 255 260 261 256 259 260 258 258 258 257 254 250 248 250 250 242 243 245 247 245 257 260 247 234 231 226 218 210 205 200
182 155 176 268 274 267 262 242 244 247 252 259 265 269 269 265 259 258 260 261 261 259 253 250 253 256 255 247 247 244 245 245 245 247 246 247 250 245 235 228 225 222 217 209
194 173 174 217 211 195 207 215 235 244 243 243 267 263 266 263 264 264 264 267 266 258 256 253 254 253 252 247 246 241 244 244 244 244 244 247 248 247 245 240 235 231 227 224